Time,TemperatureF,DewpointF,PressureIn,WindDirection,WindDirectionDegrees,WindSpeedMPH,WindSpeedGustMPH,Humidity,HourlyPrecipIn,Conditions,Clouds,dailyrainin,SoftwareType,DateUTC
2013-01-13 00:00:00,6.1,1.8,30.00,WSW,248,0.0,5.0,82,0.00,,SKC,0.00,VWS V14.01,2013-01-13 06:00:00,
2013-01-13 00:05:00,6.1,1.8,30.00,WSW,248,0.0,1.0,82,0.00,,SKC,0.00,VWS V14.01,2013-01-13 06:05:00,
2013-01-13 00:10:00,6.0,1.7,29.99,WSW,248,2.0,5.0,82,0.00,,SKC,0.00,VWS V14.01,2013-01-13 06:10:00,
2013-01-13 00:15:00,5.9,1.6,30.00,West,259,2.0,6.0,82,0.00,,SKC,0.00,VWS V14.01,2013-01-13 06:15:00,
2013-01-13 00:25:00,5.9,1.6,30.00,West,265,0.0,6.0,82,0.00,,SKC,0.00,VWS V14.01,2013-01-13 06:25:00,
2013-01-13 00:30:00,6.0,1.7,30.00,West,266,1.0,6.0,82,0.00,,SKC,0.00,VWS V14.01,2013-01-13 06:30:00,
2013-01-13 00:35:00,5.9,1.6,30.00,West,266,0.0,0.0,82,0.00,,SKC,0.00,VWS V14.01,2013-01-13 06:35:00,
2013-01-13 00:40:00,6.0,1.7,30.00,West,266,0.0,2.0,82,0.00,,SKC,0.00,VWS V14.01,2013-01-13 06:40:00,
2013-01-13 00:45:00,6.2,2.2,30.00,West,270,1.0,5.0,83,0.00,,SKC,0.00,VWS V14.01,2013-01-13 06:45:00,
2013-01-13 00:50:00,6.2,2.2,30.00,West,271,0.0,5.0,83,0.00,,SKC,0.00,VWS V14.01,2013-01-13 06:50:00,
2013-01-13 00:55:00,6.1,2.1,30.00,West,271,0.0,5.0,83,0.00,,SKC,0.00,VWS V14.01,2013-01-13 06:55:00,
2013-01-13 01:00:00,6.1,2.1,30.00,West,271,1.0,5.0,83,0.00,,SKC,0.00,VWS V14.01,2013-01-13 07:00:00,
2013-01-13 01:05:00,6.0,2.0,30.00,West,271,0.0,0.0,83,0.00,,SKC,0.00,VWS V14.01,2013-01-13 07:05:00,
2013-01-13 01:10:00,6.1,2.1,30.00,West,271,0.0,2.0,83,0.00,,SKC,0.00,VWS V14.01,2013-01-13 07:10:00,
2013-01-13 01:15:00,6.0,2.0,30.01,West,271,0.0,2.0,83,0.00,,SKC,0.00,VWS V14.01,2013-01-13 07:15:00,
2013-01-13 01:20:00,5.9,1.9,30.01,West,271,2.0,2.0,83,0.00,,SKC,0.00,VWS V14.01,2013-01-13 07:20:00,
2013-01-13 01:25:00,5.8,1.8,30.01,West,271,0.0,5.0,83,0.00,,SKC,0.00,VWS V14.01,2013-01-13 07:25:00,
2013-01-13 01:30:00,5.8,1.8,30.01,West,271,0.0,6.0,83,0.00,,SKC,0.00,VWS V14.01,2013-01-13 07:30:00,
2013-01-13 01:35:00,5.9,1.9,30.01,West,271,2.0,3.0,83,0.00,,SKC,0.00,VWS V14.01,2013-01-13 07:35:00,
2013-01-13 01:40:00,5.8,1.8,30.01,West,271,2.0,5.0,83,0.00,,SKC,0.00,VWS V14.01,2013-01-13 07:40:00,
2013-01-13 01:45:00,5.8,1.8,30.01,West,271,0.0,5.0,83,0.00,,SKC,0.00,VWS V14.01,2013-01-13 07:45:00,
2013-01-13 01:50:00,5.6,1.3,30.01,West,271,0.0,5.0,82,0.00,,SKC,0.00,VWS V14.01,2013-01-13 07:50:00,
2013-01-13 01:55:00,5.5,1.2,30.01,West,272,4.0,6.0,82,0.00,,SKC,0.00,VWS V14.01,2013-01-13 07:55:00,
2013-01-13 02:00:00,5.4,1.4,30.01,West,273,4.0,6.0,83,0.00,,SKC,0.00,VWS V14.01,2013-01-13 08:00:00,
2013-01-13 02:01:00,5.5,1.5,30.01,West,272,2.0,6.0,83,0.00,,SKC,0.00,VWS V14.01,2013-01-13 08:01:00,
2013-01-13 02:06:00,5.4,1.4,30.01,West,273,0.0,5.0,83,0.00,,SKC,0.00,VWS V14.01,2013-01-13 08:06:00,
2013-01-13 02:11:00,5.4,1.4,30.01,West,273,5.0,5.0,83,0.00,,SKC,0.00,VWS V14.01,2013-01-13 08:11:00,
2013-01-13 02:16:00,5.3,1.3,30.02,West,277,1.0,5.0,83,0.00,,SKC,0.00,VWS V14.01,2013-01-13 08:16:00,
2013-01-13 02:21:00,5.2,1.2,30.01,West,277,2.0,5.0,83,0.00,,SKC,0.00,VWS V14.01,2013-01-13 08:21:00,
2013-01-13 02:26:00,5.2,1.2,30.01,West,277,2.0,6.0,83,0.00,,SKC,0.00,VWS V14.01,2013-01-13 08:26:00,
2013-01-13 02:30:00,5.1,1.1,30.01,West,277,0.0,6.0,83,0.00,,SKC,0.00,VWS V14.01,2013-01-13 08:30:00,
2013-01-13 02:31:00,5.1,1.1,30.01,West,277,3.0,6.0,83,0.00,,SKC,0.00,VWS V14.01,2013-01-13 08:31:00,
2013-01-13 02:36:00,5.1,1.1,30.02,West,277,0.0,0.0,83,0.00,,SKC,0.00,VWS V14.01,2013-01-13 08:36:00,
2013-01-13 02:41:00,5.0,1.0,30.01,West,277,0.0,5.0,83,0.00,,SKC,0.00,VWS V14.01,2013-01-13 08:41:00,
2013-01-13 02:46:00,4.9,0.9,30.01,West,278,2.0,5.0,83,0.00,,SKC,0.00,VWS V14.01,2013-01-13 08:46:00,
2013-01-13 02:51:00,5.1,1.3,30.01,West,278,2.0,5.0,84,0.00,,SKC,0.00,VWS V14.01,2013-01-13 08:51:00,
2013-01-13 02:56:00,5.0,1.2,30.01,West,278,0.0,5.0,84,0.00,,SKC,0.00,VWS V14.01,2013-01-13 08:56:00,
2013-01-13 03:00:00,4.9,1.1,30.01,WNW,288,3.0,6.0,84,0.00,,SKC,0.00,VWS V14.01,2013-01-13 09:00:00,
2013-01-13 03:01:00,4.9,1.1,30.00,West,278,1.0,5.0,84,0.00,,SKC,0.00,VWS V14.01,2013-01-13 09:01:00,
2013-01-13 03:06:00,4.8,1.0,30.01,WNW,288,1.0,4.0,84,0.00,,SKC,0.00,VWS V14.01,2013-01-13 09:06:00,
2013-01-13 03:11:00,4.7,0.9,30.01,WNW,288,4.0,4.0,84,0.00,,SKC,0.00,VWS V14.01,2013-01-13 09:11:00,
2013-01-13 03:16:00,4.9,1.4,30.01,WNW,294,2.0,5.0,85,0.00,,SKC,0.00,VWS V14.01,2013-01-13 09:16:00,
2013-01-13 03:21:00,4.8,1.3,30.01,WNW,294,0.0,5.0,85,0.00,,SKC,0.00,VWS V14.01,2013-01-13 09:21:00,
2013-01-13 03:26:00,4.6,0.8,30.00,WNW,294,2.0,6.0,84,0.00,,SKC,0.00,VWS V14.01,2013-01-13 09:26:00,
2013-01-13 03:30:00,4.5,0.7,30.00,WNW,295,3.0,6.0,84,0.00,,SKC,0.00,VWS V14.01,2013-01-13 09:30:00,
2013-01-13 03:31:00,4.6,0.8,30.00,WNW,294,4.0,6.0,84,0.00,,SKC,0.00,VWS V14.01,2013-01-13 09:31:00,
2013-01-13 03:36:00,4.5,0.7,30.00,WNW,295,4.0,5.0,84,0.00,,SKC,0.00,VWS V14.01,2013-01-13 09:36:00,
2013-01-13 03:41:00,4.6,0.8,30.00,WNW,295,1.0,5.0,84,0.00,,SKC,0.00,VWS V14.01,2013-01-13 09:41:00,
2013-01-13 03:46:00,4.5,0.7,29.99,WNW,295,2.0,5.0,84,0.00,,SKC,0.00,VWS V14.01,2013-01-13 09:46:00,
2013-01-13 03:51:00,4.4,0.6,30.00,WNW,295,2.0,5.0,84,0.00,,SKC,0.00,VWS V14.01,2013-01-13 09:51:00,
2013-01-13 03:56:00,4.2,0.2,30.00,WNW,295,4.0,5.0,83,0.00,,SKC,0.00,VWS V14.01,2013-01-13 09:56:00,
2013-01-13 04:00:00,4.1,0.3,30.00,WNW,295,3.0,5.0,84,0.00,,SKC,0.00,VWS V14.01,2013-01-13 10:00:00,
2013-01-13 04:01:00,4.2,0.2,30.00,WNW,295,4.0,5.0,83,0.00,,SKC,0.00,VWS V14.01,2013-01-13 10:01:00,
2013-01-13 04:06:00,4.1,0.3,30.00,WNW,295,4.0,4.0,84,0.00,,SKC,0.00,VWS V14.01,2013-01-13 10:06:00,
2013-01-13 04:11:00,4.0,0.0,30.00,WNW,295,4.0,5.0,83,0.00,,SKC,0.00,VWS V14.01,2013-01-13 10:11:00,
2013-01-13 04:16:00,3.9,-0.1,30.00,WNW,295,2.0,5.0,83,0.00,,SKC,0.00,VWS V14.01,2013-01-13 10:16:00,
2013-01-13 04:21:00,3.8,-0.2,30.00,WNW,295,2.0,5.0,83,0.00,,SKC,0.00,VWS V14.01,2013-01-13 10:21:00,
2013-01-13 04:26:00,3.8,0.1,30.00,WNW,295,2.0,5.0,84,0.00,,SKC,0.00,VWS V14.01,2013-01-13 10:26:00,
2013-01-13 04:30:00,3.7,0.0,30.01,WNW,295,0.0,5.0,84,0.00,,SKC,0.00,VWS V14.01,2013-01-13 10:30:00,
2013-01-13 04:31:00,3.7,0.0,30.01,WNW,295,0.0,5.0,84,0.00,,SKC,0.00,VWS V14.01,2013-01-13 10:31:00,
2013-01-13 04:36:00,3.7,0.0,30.00,WNW,295,0.0,0.0,84,0.00,,SKC,0.00,VWS V14.01,2013-01-13 10:36:00,
2013-01-13 04:41:00,3.6,-0.1,30.00,WNW,295,1.0,3.0,84,0.00,,SKC,0.00,VWS V14.01,2013-01-13 10:41:00,
2013-01-13 04:47:00,3.5,-0.2,30.00,WNW,295,0.0,3.0,84,0.00,,SKC,0.00,VWS V14.01,2013-01-13 10:47:00,
2013-01-13 04:52:00,3.8,0.3,30.01,WNW,295,0.0,3.0,85,0.00,,SKC,0.00,VWS V14.01,2013-01-13 10:52:00,
2013-01-13 04:57:00,3.7,0.2,30.01,WNW,295,0.0,4.0,85,0.00,,SKC,0.00,VWS V14.01,2013-01-13 10:57:00,
2013-01-13 05:00:00,3.5,-0.2,30.02,WNW,295,1.0,5.0,84,0.00,,SKC,0.00,VWS V14.01,2013-01-13 11:00:00,
2013-01-13 05:02:00,3.5,-0.2,30.01,WNW,295,0.0,5.0,84,0.00,,SKC,0.00,VWS V14.01,2013-01-13 11:02:00,
2013-01-13 05:07:00,3.4,-0.3,30.02,WNW,295,2.0,4.0,84,0.00,,SKC,0.00,VWS V14.01,2013-01-13 11:07:00,
2013-01-13 05:12:00,3.3,-0.4,30.02,WNW,295,2.0,4.0,84,0.00,,SKC,0.00,VWS V14.01,2013-01-13 11:12:00,
2013-01-13 05:17:00,3.3,-0.4,30.02,WNW,295,1.0,6.0,84,0.00,,SKC,0.00,VWS V14.01,2013-01-13 11:17:00,
2013-01-13 05:22:00,3.1,-0.6,30.01,WNW,295,2.0,6.0,84,0.00,,SKC,0.00,VWS V14.01,2013-01-13 11:22:00,
2013-01-13 05:27:00,3.0,-0.7,30.01,WNW,295,0.0,6.0,84,0.00,,SKC,0.00,VWS V14.01,2013-01-13 11:27:00,
2013-01-13 05:30:00,3.0,-0.5,30.02,WNW,295,0.0,6.0,85,0.00,,SKC,0.00,VWS V14.01,2013-01-13 11:30:00,
2013-01-13 05:32:00,2.9,-0.8,30.02,WNW,295,0.0,6.0,84,0.00,,SKC,0.00,VWS V14.01,2013-01-13 11:32:00,
2013-01-13 05:37:00,3.1,-0.4,30.02,WNW,295,0.0,4.0,85,0.00,,SKC,0.00,VWS V14.01,2013-01-13 11:37:00,
2013-01-13 05:42:00,3.1,-0.4,30.03,WNW,295,4.0,5.0,85,0.00,,SKC,0.00,VWS V14.01,2013-01-13 11:42:00,
2013-01-13 05:47:00,2.9,-0.6,30.03,WNW,295,0.0,5.0,85,0.00,,SKC,0.00,VWS V14.01,2013-01-13 11:47:00,
2013-01-13 05:52:00,2.8,-0.7,30.04,WNW,295,1.0,5.0,85,0.00,,SKC,0.00,VWS V14.01,2013-01-13 11:52:00,
2013-01-13 05:57:00,2.8,-0.7,30.04,WNW,295,0.0,5.0,85,0.00,,SKC,0.00,VWS V14.01,2013-01-13 11:57:00,
2013-01-13 06:00:00,2.8,-0.7,30.04,WNW,295,0.0,5.0,85,0.00,,SKC,0.00,VWS V14.01,2013-01-13 12:00:00,
2013-01-13 06:02:00,2.8,-0.7,30.04,WNW,295,0.0,5.0,85,0.00,,SKC,0.00,VWS V14.01,2013-01-13 12:02:00,
2013-01-13 06:07:00,2.8,-0.4,30.05,WNW,295,0.0,0.0,86,0.00,,SKC,0.00,VWS V14.01,2013-01-13 12:07:00,
2013-01-13 06:12:00,2.8,-0.4,30.04,WNW,295,1.0,2.0,86,0.00,,SKC,0.00,VWS V14.01,2013-01-13 12:12:00,
2013-01-13 06:17:00,2.5,-1.0,30.04,WNW,295,0.0,2.0,85,0.00,,SKC,0.00,VWS V14.01,2013-01-13 12:17:00,
2013-01-13 06:22:00,2.4,-1.1,30.05,WNW,295,0.0,4.0,85,0.00,,SKC,0.00,VWS V14.01,2013-01-13 12:22:00,
2013-01-13 06:27:00,2.3,-0.9,30.05,WNW,295,0.0,5.0,86,0.00,,SKC,0.00,VWS V14.01,2013-01-13 12:27:00,
2013-01-13 06:30:00,2.0,-1.2,30.04,WNW,295,0.0,6.0,86,0.00,,SKC,0.00,VWS V14.01,2013-01-13 12:30:00,
2013-01-13 06:32:00,2.1,-1.4,30.04,WNW,295,0.0,6.0,85,0.00,,SKC,0.00,VWS V14.01,2013-01-13 12:32:00,
2013-01-13 06:37:00,1.9,-1.6,30.04,WNW,295,1.0,3.0,85,0.00,,SKC,0.00,VWS V14.01,2013-01-13 12:37:00,
2013-01-13 06:42:00,1.8,-1.7,30.05,WNW,295,0.0,5.0,85,0.00,,SKC,0.00,VWS V14.01,2013-01-13 12:42:00,
2013-01-13 06:47:00,1.7,-1.8,30.05,WNW,295,0.0,5.0,85,0.00,,SKC,0.00,VWS V14.01,2013-01-13 12:47:00,
2013-01-13 06:52:00,1.6,-1.9,30.05,WNW,295,0.0,5.0,85,0.00,,SKC,0.00,VWS V14.01,2013-01-13 12:52:00,
2013-01-13 06:57:00,1.6,-1.9,30.06,WNW,295,0.0,5.0,85,0.00,,SKC,0.00,VWS V14.01,2013-01-13 12:57:00,
2013-01-13 07:00:00,1.5,-1.7,30.06,WNW,295,0.0,5.0,86,0.00,,SKC,0.00,VWS V14.01,2013-01-13 13:00:00,
2013-01-13 07:02:00,1.5,-2.0,30.06,WNW,295,0.0,5.0,85,0.00,,SKC,0.00,VWS V14.01,2013-01-13 13:02:00,
2013-01-13 07:07:00,1.6,-1.6,30.06,WNW,295,0.0,2.0,86,0.00,,SKC,0.00,VWS V14.01,2013-01-13 13:07:00,
2013-01-13 07:12:00,1.7,-1.5,30.06,WNW,295,0.0,2.0,86,0.00,,SKC,0.00,VWS V14.01,2013-01-13 13:12:00,
2013-01-13 07:17:00,1.6,-1.6,30.06,WNW,295,0.0,4.0,86,0.00,,SKC,0.00,VWS V14.01,2013-01-13 13:17:00,
2013-01-13 07:23:00,1.5,-1.7,30.07,WNW,295,0.0,4.0,86,0.00,,SKC,0.00,VWS V14.01,2013-01-13 13:23:00,
2013-01-13 07:28:00,1.4,-1.8,30.07,WNW,295,0.0,4.0,86,0.00,,SKC,0.00,VWS V14.01,2013-01-13 13:28:00,
2013-01-13 07:30:00,1.3,-1.9,30.07,WNW,295,0.0,4.0,86,0.00,,SKC,0.00,VWS V14.01,2013-01-13 13:30:00,
2013-01-13 07:33:00,1.4,-1.8,30.07,WNW,295,0.0,4.0,86,0.00,,SKC,0.00,VWS V14.01,2013-01-13 13:33:00,
2013-01-13 07:38:00,1.3,-1.9,30.08,WNW,295,0.0,0.0,86,0.00,,SKC,0.00,VWS V14.01,2013-01-13 13:38:00,
2013-01-13 07:43:00,1.2,-2.0,30.08,WNW,295,0.0,0.0,86,0.00,,SKC,0.00,VWS V14.01,2013-01-13 13:43:00,
2013-01-13 07:48:00,1.1,-2.1,30.08,WNW,295,2.0,2.0,86,0.00,,SKC,0.00,VWS V14.01,2013-01-13 13:48:00,
2013-01-13 07:53:00,1.4,-1.8,30.09,WNW,295,0.0,2.0,86,0.00,,SKC,0.00,VWS V14.01,2013-01-13 13:53:00,
2013-01-13 07:58:00,1.3,-1.9,30.09,WNW,295,0.0,4.0,86,0.00,,SKC,0.00,VWS V14.01,2013-01-13 13:58:00,
2013-01-13 08:00:00,1.3,-1.9,30.10,WNW,295,0.0,4.0,86,0.00,,SKC,0.00,VWS V14.01,2013-01-13 14:00:00,
2013-01-13 08:03:00,1.3,-1.9,30.10,WNW,295,0.0,4.0,86,0.00,,SKC,0.00,VWS V14.01,2013-01-13 14:03:00,
2013-01-13 08:08:00,1.3,-1.9,30.10,WNW,295,1.0,5.0,86,0.00,,SKC,0.00,VWS V14.01,2013-01-13 14:08:00,
2013-01-13 08:13:00,1.4,-1.8,30.10,WNW,295,0.0,5.0,86,0.00,,SKC,0.00,VWS V14.01,2013-01-13 14:13:00,
2013-01-13 08:18:00,1.7,-1.3,30.10,WNW,295,0.0,5.0,87,0.00,,SKC,0.00,VWS V14.01,2013-01-13 14:18:00,
2013-01-13 08:23:00,1.8,-1.4,30.10,WNW,295,0.0,5.0,86,0.00,,SKC,0.00,VWS V14.01,2013-01-13 14:23:00,
2013-01-13 08:28:00,1.8,-1.4,30.10,WNW,295,1.0,5.0,86,0.00,,SKC,0.00,VWS V14.01,2013-01-13 14:28:00,
2013-01-13 08:30:00,2.0,-1.2,30.10,WNW,295,2.0,5.0,86,0.00,,SKC,0.00,VWS V14.01,2013-01-13 14:30:00,
2013-01-13 08:33:00,1.9,-1.3,30.11,WNW,295,1.0,5.0,86,0.00,,SKC,0.00,VWS V14.01,2013-01-13 14:33:00,
2013-01-13 08:38:00,2.0,-1.2,30.11,WNW,295,3.0,4.0,86,0.00,,SKC,0.00,VWS V14.01,2013-01-13 14:38:00,
2013-01-13 08:43:00,1.9,-1.3,30.11,WNW,293,0.0,7.0,86,0.00,,SKC,0.00,VWS V14.01,2013-01-13 14:43:00,
2013-01-13 08:48:00,1.9,-1.6,30.11,WNW,293,0.0,7.0,85,0.00,,SKC,0.00,VWS V14.01,2013-01-13 14:48:00,
2013-01-13 08:53:00,1.8,-1.7,30.11,WNW,293,1.0,7.0,85,0.00,,SKC,0.00,VWS V14.01,2013-01-13 14:53:00,
2013-01-13 08:58:00,2.0,-1.5,30.11,WNW,293,1.0,7.0,85,0.00,,SKC,0.00,VWS V14.01,2013-01-13 14:58:00,
2013-01-13 09:00:00,2.2,-1.3,30.11,WNW,293,2.0,7.0,85,0.00,,SKC,0.00,VWS V14.01,2013-01-13 15:00:00,
2013-01-13 09:03:00,2.1,-1.1,30.11,WNW,293,2.0,7.0,86,0.00,,SKC,0.00,VWS V14.01,2013-01-13 15:03:00,
2013-01-13 09:08:00,2.2,-1.3,30.11,WNW,293,1.0,4.0,85,0.00,,SKC,0.00,VWS V14.01,2013-01-13 15:08:00,
2013-01-13 09:13:00,2.3,-1.2,30.12,WNW,293,0.0,4.0,85,0.00,,SKC,0.00,VWS V14.01,2013-01-13 15:13:00,
2013-01-13 09:18:00,2.6,-0.9,30.11,WNW,293,2.0,7.0,85,0.00,,SKC,0.00,VWS V14.01,2013-01-13 15:18:00,
2013-01-13 09:23:00,2.8,-0.7,30.11,WNW,294,5.0,7.0,85,0.00,,SKC,0.00,VWS V14.01,2013-01-13 15:23:00,
2013-01-13 09:28:00,3.0,-0.5,30.11,WNW,296,5.0,7.0,85,0.00,,SKC,0.00,VWS V14.01,2013-01-13 15:28:00,
2013-01-13 09:30:00,3.0,-0.7,30.11,WNW,300,4.0,7.0,84,0.00,,SKC,0.00,VWS V14.01,2013-01-13 15:30:00,
2013-01-13 09:33:00,2.9,-0.8,30.11,WNW,299,5.0,7.0,84,0.00,,SKC,0.00,VWS V14.01,2013-01-13 15:33:00,
2013-01-13 09:39:00,3.0,-0.7,30.11,NW,306,4.0,8.0,84,0.00,,SKC,0.00,VWS V14.01,2013-01-13 15:39:00,
2013-01-13 09:44:00,3.2,-0.5,30.11,NW,307,6.0,8.0,84,0.00,,SKC,0.00,VWS V14.01,2013-01-13 15:44:00,
2013-01-13 09:49:00,3.3,-0.4,30.11,NW,307,2.0,8.0,84,0.00,,SKC,0.00,VWS V14.01,2013-01-13 15:49:00,
2013-01-13 09:54:00,3.5,-0.2,30.11,NW,307,2.0,8.0,84,0.00,,SKC,0.00,VWS V14.01,2013-01-13 15:54:00,
2013-01-13 09:59:00,3.6,-0.4,30.11,NW,307,5.0,8.0,83,0.00,,SKC,0.00,VWS V14.01,2013-01-13 15:59:00,
2013-01-13 10:00:00,3.8,-0.2,30.11,NW,307,4.0,8.0,83,0.00,,SKC,0.00,VWS V14.01,2013-01-13 16:00:00,
2013-01-13 10:04:00,3.8,-0.2,30.11,NW,307,2.0,8.0,83,0.00,,SKC,0.00,VWS V14.01,2013-01-13 16:04:00,
2013-01-13 10:09:00,4.1,0.1,30.11,NW,307,4.0,6.0,83,0.00,,SKC,0.00,VWS V14.01,2013-01-13 16:09:00,
2013-01-13 10:14:00,4.2,0.2,30.11,NW,307,3.0,6.0,83,0.00,,SKC,0.00,VWS V14.01,2013-01-13 16:14:00,
2013-01-13 10:19:00,4.2,-0.1,30.11,NW,307,1.0,6.0,82,0.00,,SKC,0.00,VWS V14.01,2013-01-13 16:19:00,
2013-01-13 10:24:00,4.1,-0.2,30.11,NW,307,4.0,6.0,82,0.00,,SKC,0.00,VWS V14.01,2013-01-13 16:24:00,
2013-01-13 10:29:00,4.4,0.1,30.10,NW,307,5.0,6.0,82,0.00,,SKC,0.00,VWS V14.01,2013-01-13 16:29:00,
2013-01-13 10:30:00,4.7,0.7,30.10,NW,307,1.0,7.0,83,0.00,,SKC,0.00,VWS V14.01,2013-01-13 16:30:00,
2013-01-13 10:34:00,4.7,0.7,30.10,NW,307,2.0,7.0,83,0.00,,SKC,0.00,VWS V14.01,2013-01-13 16:34:00,
2013-01-13 10:39:00,4.7,0.7,30.10,NW,307,5.0,5.0,83,0.00,,SKC,0.00,VWS V14.01,2013-01-13 16:39:00,
2013-01-13 10:44:00,4.6,0.6,30.10,NW,307,2.0,5.0,83,0.00,,SKC,0.00,VWS V14.01,2013-01-13 16:44:00,
2013-01-13 10:49:00,4.7,0.4,30.09,NW,307,1.0,5.0,82,0.00,,SKC,0.00,VWS V14.01,2013-01-13 16:49:00,
2013-01-13 10:54:00,5.0,1.0,30.09,NW,307,1.0,5.0,83,0.00,,SKC,0.00,VWS V14.01,2013-01-13 16:54:00,
2013-01-13 10:59:00,5.1,1.1,30.08,NW,306,5.0,7.0,83,0.00,,SKC,0.00,VWS V14.01,2013-01-13 16:59:00,
2013-01-13 11:00:00,5.1,1.1,30.08,NW,306,2.0,7.0,83,0.00,,SKC,0.00,VWS V14.01,2013-01-13 17:00:00,
2013-01-13 11:04:00,5.1,1.1,30.08,NW,306,2.0,7.0,83,0.00,,SKC,0.00,VWS V14.01,2013-01-13 17:04:00,
2013-01-13 11:09:00,5.1,1.1,30.08,NW,306,2.0,4.0,83,0.00,,SKC,0.00,VWS V14.01,2013-01-13 17:09:00,
2013-01-13 11:14:00,5.2,0.9,30.07,NW,306,5.0,7.0,82,0.00,,SKC,0.00,VWS V14.01,2013-01-13 17:14:00,
2013-01-13 11:19:00,5.4,1.4,30.07,NW,306,4.0,7.0,83,0.00,,SKC,0.00,VWS V14.01,2013-01-13 17:19:00,
2013-01-13 11:24:00,5.3,1.0,30.07,WNW,287,2.0,9.0,82,0.00,,SKC,0.00,VWS V14.01,2013-01-13 17:24:00,
2013-01-13 11:29:00,5.3,1.0,30.06,WNW,292,3.0,9.0,82,0.00,,SKC,0.00,VWS V14.01,2013-01-13 17:29:00,
2013-01-13 11:30:00,5.3,0.8,30.06,WNW,299,6.0,9.0,81,0.00,,SKC,0.00,VWS V14.01,2013-01-13 17:30:00,
2013-01-13 11:34:00,5.3,0.8,30.06,WNW,299,4.0,9.0,81,0.00,,SKC,0.00,VWS V14.01,2013-01-13 17:34:00,
2013-01-13 11:39:00,5.4,1.1,30.06,WNW,290,2.0,10.0,82,0.00,,SKC,0.00,VWS V14.01,2013-01-13 17:39:00,
2013-01-13 11:44:00,5.4,1.1,30.05,WNW,290,0.0,10.0,82,0.00,,SKC,0.00,VWS V14.01,2013-01-13 17:44:00,
2013-01-13 11:49:00,5.3,0.8,30.05,WNW,290,3.0,10.0,81,0.00,,SKC,0.00,VWS V14.01,2013-01-13 17:49:00,
2013-01-13 11:54:00,5.2,0.6,30.05,WNW,289,5.0,10.0,81,0.00,,SKC,0.00,VWS V14.01,2013-01-13 17:54:00,
2013-01-13 11:59:00,5.3,0.8,30.05,West,281,4.0,10.0,81,0.00,,SKC,0.00,VWS V14.01,2013-01-13 17:59:00,
2013-01-13 12:00:00,5.4,1.1,30.05,WNW,283,2.0,10.0,82,0.00,,SKC,0.00,VWS V14.01,2013-01-13 18:00:00,
2013-01-13 12:04:00,5.4,1.1,30.05,WNW,283,2.0,10.0,82,0.00,,SKC,0.00,VWS V14.01,2013-01-13 18:04:00,
2013-01-13 12:10:00,5.5,1.2,30.04,WNW,284,2.0,6.0,82,0.00,,SKC,0.00,VWS V14.01,2013-01-13 18:10:00,
2013-01-13 12:15:00,5.7,1.4,30.04,WNW,288,4.0,6.0,82,0.00,,SKC,0.00,VWS V14.01,2013-01-13 18:15:00,
2013-01-13 12:20:00,5.8,1.2,30.04,WNW,288,1.0,6.0,81,0.00,,SKC,0.00,VWS V14.01,2013-01-13 18:20:00,
2013-01-13 12:25:00,6.0,1.7,30.04,WNW,294,6.0,6.0,82,0.00,,SKC,0.00,VWS V14.01,2013-01-13 18:25:00,
2013-01-13 12:30:00,6.0,1.4,30.04,WNW,293,6.0,7.0,81,0.00,,SKC,0.00,VWS V14.01,2013-01-13 18:30:00,
2013-01-13 12:35:00,6.0,1.4,30.04,WNW,286,3.0,4.0,81,0.00,,SKC,0.00,VWS V14.01,2013-01-13 18:35:00,
2013-01-13 12:40:00,5.9,1.1,30.04,WNW,286,1.0,8.0,80,0.00,,SKC,0.00,VWS V14.01,2013-01-13 18:40:00,
2013-01-13 12:45:00,6.0,1.2,30.04,NW,306,4.0,10.0,80,0.00,,SKC,0.00,VWS V14.01,2013-01-13 18:45:00,
2013-01-13 12:50:00,6.1,1.0,30.04,WNW,299,2.0,10.0,79,0.00,,SKC,0.00,VWS V14.01,2013-01-13 18:50:00,
2013-01-13 12:55:00,6.1,1.0,30.04,WNW,299,3.0,10.0,79,0.00,,SKC,0.00,VWS V14.01,2013-01-13 18:55:00,
2013-01-13 13:00:00,6.3,1.2,30.04,WNW,296,5.0,10.0,79,0.00,,SKC,0.00,VWS V14.01,2013-01-13 19:00:00,
2013-01-13 13:05:00,6.4,1.3,30.04,NW,314,6.0,6.0,79,0.00,,SKC,0.00,VWS V14.01,2013-01-13 19:05:00,
2013-01-13 13:10:00,6.5,1.1,30.05,NW,313,5.0,6.0,78,0.00,,SKC,0.00,VWS V14.01,2013-01-13 19:10:00,
2013-01-13 13:15:00,6.7,1.6,30.04,NW,314,3.0,8.0,79,0.00,,SKC,0.00,VWS V14.01,2013-01-13 19:15:00,
2013-01-13 13:20:00,6.7,1.6,30.04,NW,313,4.0,8.0,79,0.00,,SKC,0.00,VWS V14.01,2013-01-13 19:20:00,
2013-01-13 13:25:00,6.5,1.1,30.05,NW,317,5.0,8.0,78,0.00,,SKC,0.00,VWS V14.01,2013-01-13 19:25:00,
2013-01-13 13:30:00,6.3,0.6,30.05,NW,305,3.0,8.0,77,0.00,,SKC,0.00,VWS V14.01,2013-01-13 19:30:00,
2013-01-13 13:35:00,6.5,1.1,30.05,WNW,288,0.0,2.0,78,0.00,,SKC,0.00,VWS V14.01,2013-01-13 19:35:00,
2013-01-13 13:40:00,6.6,1.2,30.05,WNW,288,2.0,7.0,78,0.00,,SKC,0.00,VWS V14.01,2013-01-13 19:40:00,
2013-01-13 13:45:00,6.8,1.4,30.05,WNW,288,0.0,7.0,78,0.00,,SKC,0.00,VWS V14.01,2013-01-13 19:45:00,
2013-01-13 13:51:00,7.0,1.6,30.05,WNW,288,1.0,7.0,78,0.00,,SKC,0.00,VWS V14.01,2013-01-13 19:51:00,
2013-01-13 13:56:00,7.1,1.7,30.05,WNW,297,4.0,8.0,78,0.00,,SKC,0.00,VWS V14.01,2013-01-13 19:56:00,
2013-01-13 14:00:00,6.9,1.8,30.05,WNW,296,4.0,8.0,79,0.00,,SKC,0.00,VWS V14.01,2013-01-13 20:00:00,
2013-01-13 14:01:00,7.1,2.0,30.05,WNW,296,4.0,8.0,79,0.00,,SKC,0.00,VWS V14.01,2013-01-13 20:01:00,
2013-01-13 14:06:00,6.9,1.8,30.05,WNW,296,0.0,4.0,79,0.00,,SKC,0.00,VWS V14.01,2013-01-13 20:06:00,
2013-01-13 14:11:00,6.8,1.7,30.05,WNW,296,5.0,5.0,79,0.00,,SKC,0.00,VWS V14.01,2013-01-13 20:11:00,
2013-01-13 14:16:00,6.6,1.5,30.05,WNW,296,2.0,7.0,79,0.00,,SKC,0.00,VWS V14.01,2013-01-13 20:16:00,
2013-01-13 14:21:00,6.6,1.5,30.05,WNW,298,1.0,7.0,79,0.00,,SKC,0.00,VWS V14.01,2013-01-13 20:21:00,
2013-01-13 14:26:00,6.7,1.9,30.06,WNW,290,2.0,7.0,80,0.00,,SKC,0.00,VWS V14.01,2013-01-13 20:26:00,
2013-01-13 14:30:00,6.7,1.9,30.06,WNW,290,3.0,7.0,80,0.00,,SKC,0.00,VWS V14.01,2013-01-13 20:30:00,
2013-01-13 14:31:00,6.7,1.9,30.06,WNW,290,0.0,7.0,80,0.00,,SKC,0.00,VWS V14.01,2013-01-13 20:31:00,
2013-01-13 14:36:00,6.7,1.9,30.06,WNW,290,3.0,4.0,80,0.00,,SKC,0.00,VWS V14.01,2013-01-13 20:36:00,
2013-01-13 14:41:00,6.5,1.7,30.06,WNW,290,2.0,5.0,80,0.00,,SKC,0.00,VWS V14.01,2013-01-13 20:41:00,
2013-01-13 14:46:00,6.5,1.7,30.07,WNW,290,2.0,6.0,80,0.00,,SKC,0.00,VWS V14.01,2013-01-13 20:46:00,
2013-01-13 14:51:00,6.5,1.9,30.07,WNW,290,1.0,6.0,81,0.00,,SKC,0.00,VWS V14.01,2013-01-13 20:51:00,
2013-01-13 14:56:00,6.7,2.1,30.07,WNW,290,0.0,6.0,81,0.00,,SKC,0.00,VWS V14.01,2013-01-13 20:56:00,
2013-01-13 15:00:00,7.0,2.4,30.07,WNW,290,1.0,6.0,81,0.00,,SKC,0.00,VWS V14.01,2013-01-13 21:00:00,
2013-01-13 15:01:00,6.8,2.2,30.07,WNW,290,0.0,6.0,81,0.00,,SKC,0.00,VWS V14.01,2013-01-13 21:01:00,
2013-01-13 15:06:00,7.0,2.4,30.08,WNW,290,3.0,5.0,81,0.00,,SKC,0.00,VWS V14.01,2013-01-13 21:06:00,
2013-01-13 15:11:00,7.1,2.2,30.08,WNW,290,2.0,5.0,80,0.00,,SKC,0.00,VWS V14.01,2013-01-13 21:11:00,
2013-01-13 15:16:00,7.3,2.7,30.08,WNW,290,4.0,6.0,81,0.00,,SKC,0.00,VWS V14.01,2013-01-13 21:16:00,
2013-01-13 15:21:00,7.3,2.2,30.08,WNW,292,4.0,9.0,79,0.00,,SKC,0.00,VWS V14.01,2013-01-13 21:21:00,
2013-01-13 15:26:00,7.3,2.2,30.08,WNW,292,2.0,9.0,79,0.00,,SKC,0.00,VWS V14.01,2013-01-13 21:26:00,
2013-01-13 15:30:00,7.2,2.1,30.08,WNW,292,1.0,9.0,79,0.00,,SKC,0.00,VWS V14.01,2013-01-13 21:30:00,
2013-01-13 15:31:00,7.2,2.1,30.08,WNW,292,5.0,9.0,79,0.00,,SKC,0.00,VWS V14.01,2013-01-13 21:31:00,
2013-01-13 15:36:00,7.2,2.1,30.08,WNW,292,2.0,3.0,79,0.00,,SKC,0.00,VWS V14.01,2013-01-13 21:36:00,
2013-01-13 15:41:00,7.4,2.5,30.08,WNW,292,0.0,5.0,80,0.00,,SKC,0.00,VWS V14.01,2013-01-13 21:41:00,
2013-01-13 15:46:00,7.5,2.6,30.08,WNW,292,0.0,5.0,80,0.00,,SKC,0.00,VWS V14.01,2013-01-13 21:46:00,
2013-01-13 15:51:00,7.3,2.4,30.09,WNW,292,2.0,6.0,80,0.00,,SKC,0.00,VWS V14.01,2013-01-13 21:51:00,
2013-01-13 15:56:00,7.0,1.9,30.08,WNW,292,1.0,6.0,79,0.00,,SKC,0.00,VWS V14.01,2013-01-13 21:56:00,
2013-01-13 16:00:00,6.9,2.0,30.09,WNW,292,1.0,6.0,80,0.00,,SKC,0.00,VWS V14.01,2013-01-13 22:00:00,
2013-01-13 16:01:00,6.9,1.8,30.09,WNW,292,3.0,6.0,79,0.00,,SKC,0.00,VWS V14.01,2013-01-13 22:01:00,
2013-01-13 16:06:00,6.9,2.0,30.09,WNW,292,1.0,4.0,80,0.00,,SKC,0.00,VWS V14.01,2013-01-13 22:06:00,
2013-01-13 16:11:00,6.8,2.2,30.09,WNW,292,0.0,7.0,81,0.00,,SKC,0.00,VWS V14.01,2013-01-13 22:11:00,
2013-01-13 16:17:00,6.8,2.2,30.09,WNW,292,2.0,7.0,81,0.00,,SKC,0.00,VWS V14.01,2013-01-13 22:17:00,
2013-01-13 16:22:00,6.8,2.0,30.09,WNW,292,3.0,7.0,80,0.00,,SKC,0.00,VWS V14.01,2013-01-13 22:22:00,
2013-01-13 16:27:00,6.9,2.0,30.09,WNW,292,2.0,7.0,80,0.00,,SKC,0.00,VWS V14.01,2013-01-13 22:27:00,
2013-01-13 16:30:00,6.7,1.6,30.10,WNW,288,1.0,7.0,79,0.00,,SKC,0.00,VWS V14.01,2013-01-13 22:30:00,
2013-01-13 16:32:00,6.7,1.9,30.09,WNW,288,2.0,7.0,80,0.00,,SKC,0.00,VWS V14.01,2013-01-13 22:32:00,
2013-01-13 16:37:00,6.7,1.6,30.09,WNW,288,2.0,3.0,79,0.00,,SKC,0.00,VWS V14.01,2013-01-13 22:37:00,
2013-01-13 16:42:00,6.7,1.6,30.10,WNW,288,0.0,5.0,79,0.00,,SKC,0.00,VWS V14.01,2013-01-13 22:42:00,
2013-01-13 16:47:00,6.5,1.4,30.10,WNW,287,2.0,6.0,79,0.00,,SKC,0.00,VWS V14.01,2013-01-13 22:47:00,
2013-01-13 16:52:00,6.4,1.3,30.10,WNW,286,2.0,6.0,79,0.00,,SKC,0.00,VWS V14.01,2013-01-13 22:52:00,
2013-01-13 16:57:00,6.0,0.9,30.10,West,267,1.0,6.0,79,0.00,,SKC,0.00,VWS V14.01,2013-01-13 22:57:00,
2013-01-13 17:00:00,5.5,0.4,30.10,West,266,2.0,6.0,79,0.00,,SKC,0.00,VWS V14.01,2013-01-13 23:00:00,
2013-01-13 17:02:00,5.7,0.6,30.10,West,266,1.0,6.0,79,0.00,,SKC,0.00,VWS V14.01,2013-01-13 23:02:00,
2013-01-13 17:07:00,5.4,0.3,30.10,West,265,4.0,5.0,79,0.00,,SKC,0.00,VWS V14.01,2013-01-13 23:07:00,
2013-01-13 17:12:00,5.3,0.2,30.11,WSW,255,2.0,7.0,79,0.00,,SKC,0.00,VWS V14.01,2013-01-13 23:12:00,
2013-01-13 17:17:00,5.3,0.5,30.11,WSW,255,2.0,7.0,80,0.00,,SKC,0.00,VWS V14.01,2013-01-13 23:17:00,
2013-01-13 17:22:00,5.1,0.3,30.11,WSW,251,5.0,7.0,80,0.00,,SKC,0.00,VWS V14.01,2013-01-13 23:22:00,
2013-01-13 17:27:00,4.9,0.1,30.11,SW,236,8.0,8.0,80,0.00,,SKC,0.00,VWS V14.01,2013-01-13 23:27:00,
2013-01-13 17:30:00,4.6,-0.2,30.11,WSW,244,1.0,8.0,80,0.00,,SKC,0.00,VWS V14.01,2013-01-13 23:30:00,
2013-01-13 17:32:00,4.7,-0.1,30.11,WSW,238,0.0,8.0,80,0.00,,SKC,0.00,VWS V14.01,2013-01-13 23:32:00,
2013-01-13 17:37:00,4.6,-0.2,30.11,WSW,244,3.0,5.0,80,0.00,,SKC,0.00,VWS V14.01,2013-01-13 23:37:00,
2013-01-13 17:42:00,4.5,0.0,30.11,WSW,244,2.0,5.0,81,0.00,,SKC,0.00,VWS V14.01,2013-01-13 23:42:00,
2013-01-13 17:47:00,4.4,-0.4,30.12,WSW,243,5.0,6.0,80,0.00,,SKC,0.00,VWS V14.01,2013-01-13 23:47:00,
2013-01-13 17:52:00,4.3,-0.5,30.12,WSW,244,0.0,6.0,80,0.00,,SKC,0.00,VWS V14.01,2013-01-13 23:52:00,
2013-01-13 17:57:00,4.2,-0.3,30.12,WSW,243,5.0,6.0,81,0.00,,SKC,0.00,VWS V14.01,2013-01-13 23:57:00,
2013-01-13 18:00:00,4.1,-0.4,30.12,WSW,243,1.0,6.0,81,0.00,,SKC,0.00,VWS V14.01,2013-01-14 00:00:00,
2013-01-13 18:02:00,4.2,-0.3,30.12,WSW,243,1.0,6.0,81,0.00,,SKC,0.00,VWS V14.01,2013-01-14 00:02:00,
2013-01-13 18:07:00,4.1,-0.4,30.12,WSW,243,0.0,3.0,81,0.00,,SKC,0.00,VWS V14.01,2013-01-14 00:07:00,
2013-01-13 18:12:00,4.0,-0.5,30.12,WSW,244,1.0,6.0,81,0.00,,SKC,0.00,VWS V14.01,2013-01-14 00:12:00,
2013-01-13 18:17:00,3.9,-0.6,30.12,WSW,244,3.0,6.0,81,0.00,,SKC,0.00,VWS V14.01,2013-01-14 00:17:00,
2013-01-13 18:22:00,3.8,-0.7,30.12,WSW,243,2.0,7.0,81,0.00,,SKC,0.00,VWS V14.01,2013-01-14 00:22:00,
2013-01-13 18:27:00,3.8,-0.7,30.12,WSW,243,1.0,7.0,81,0.00,,SKC,0.00,VWS V14.01,2013-01-14 00:27:00,
2013-01-13 18:30:00,3.7,-0.8,30.12,WSW,243,0.0,7.0,81,0.00,,SKC,0.00,VWS V14.01,2013-01-14 00:30:00,
2013-01-13 18:32:00,3.7,-0.8,30.12,WSW,243,3.0,7.0,81,0.00,,SKC,0.00,VWS V14.01,2013-01-14 00:32:00,
2013-01-13 18:37:00,3.6,-0.9,30.12,WSW,243,0.0,5.0,81,0.00,,SKC,0.00,VWS V14.01,2013-01-14 00:37:00,
2013-01-13 18:43:00,3.6,-0.9,30.12,WSW,243,0.0,5.0,81,0.00,,SKC,0.00,VWS V14.01,2013-01-14 00:43:00,
2013-01-13 18:48:00,3.7,-0.8,30.12,WSW,243,1.0,5.0,81,0.00,,SKC,0.00,VWS V14.01,2013-01-14 00:48:00,
2013-01-13 18:53:00,3.8,-0.5,30.12,WSW,243,0.0,5.0,82,0.00,,SKC,0.00,VWS V14.01,2013-01-14 00:53:00,
2013-01-13 18:58:00,3.8,-0.5,30.12,WSW,243,0.0,5.0,82,0.00,,SKC,0.00,VWS V14.01,2013-01-14 00:58:00,
2013-01-13 19:00:00,3.8,-0.5,30.13,WSW,243,0.0,5.0,82,0.00,,SKC,0.00,VWS V14.01,2013-01-14 01:00:00,
2013-01-13 19:03:00,3.8,-0.5,30.13,WSW,243,0.0,5.0,82,0.00,,SKC,0.00,VWS V14.01,2013-01-14 01:03:00,
2013-01-13 19:08:00,3.8,-0.5,30.13,WSW,243,0.0,6.0,82,0.00,,SKC,0.00,VWS V14.01,2013-01-14 01:08:00,
2013-01-13 19:13:00,4.0,-0.3,30.13,WSW,243,1.0,6.0,82,0.00,,SKC,0.00,VWS V14.01,2013-01-14 01:13:00,
2013-01-13 19:18:00,3.9,-0.4,30.13,WSW,243,2.0,6.0,82,0.00,,SKC,0.00,VWS V14.01,2013-01-14 01:18:00,
2013-01-13 19:23:00,3.8,-0.5,30.13,WSW,243,1.0,6.0,82,0.00,,SKC,0.00,VWS V14.01,2013-01-14 01:23:00,
2013-01-13 19:28:00,3.7,-0.6,30.14,WSW,243,4.0,6.0,82,0.00,,SKC,0.00,VWS V14.01,2013-01-14 01:28:00,
2013-01-13 19:30:00,3.8,-0.5,30.14,WSW,243,2.0,6.0,82,0.00,,SKC,0.00,VWS V14.01,2013-01-14 01:30:00,
2013-01-13 19:33:00,3.8,-0.5,30.14,WSW,243,1.0,6.0,82,0.00,,SKC,0.00,VWS V14.01,2013-01-14 01:33:00,
2013-01-13 19:38:00,3.8,-0.5,30.14,WSW,243,0.0,2.0,82,0.00,,SKC,0.00,VWS V14.01,2013-01-14 01:38:00,
2013-01-13 19:43:00,3.7,-0.6,30.14,WSW,243,0.0,5.0,82,0.00,,SKC,0.00,VWS V14.01,2013-01-14 01:43:00,
2013-01-13 19:48:00,3.6,-0.6,30.14,WSW,243,2.0,5.0,82,0.00,,SKC,0.00,VWS V14.01,2013-01-14 01:48:00,
2013-01-13 19:53:00,3.5,-0.8,30.14,WSW,243,0.0,5.0,82,0.00,,SKC,0.00,VWS V14.01,2013-01-14 01:53:00,
2013-01-13 19:58:00,3.7,-0.6,30.14,WSW,243,3.0,5.0,82,0.00,,SKC,0.00,VWS V14.01,2013-01-14 01:58:00,
2013-01-13 20:00:00,3.7,-0.6,30.14,WSW,243,0.0,5.0,82,0.00,,SKC,0.00,VWS V14.01,2013-01-14 02:00:00,
2013-01-13 20:03:00,3.7,-0.3,30.14,WSW,243,0.0,5.0,83,0.00,,SKC,0.00,VWS V14.01,2013-01-14 02:03:00,
2013-01-13 20:08:00,3.6,-0.6,30.14,WSW,243,0.0,5.0,82,0.00,,SKC,0.00,VWS V14.01,2013-01-14 02:08:00,
2013-01-13 20:13:00,3.6,-0.6,30.14,WSW,243,0.0,5.0,82,0.00,,SKC,0.00,VWS V14.01,2013-01-14 02:13:00,
2013-01-13 20:18:00,3.6,-0.6,30.15,WSW,243,2.0,5.0,82,0.00,,SKC,0.00,VWS V14.01,2013-01-14 02:18:00,
2013-01-13 20:23:00,3.6,-0.6,30.15,WSW,243,2.0,5.0,82,0.00,,SKC,0.00,VWS V14.01,2013-01-14 02:23:00,
2013-01-13 20:28:00,3.6,-0.6,30.15,WSW,243,2.0,5.0,82,0.00,,SKC,0.00,VWS V14.01,2013-01-14 02:28:00,
2013-01-13 20:30:00,3.6,-0.6,30.15,WSW,243,0.0,6.0,82,0.00,,SKC,0.00,VWS V14.01,2013-01-14 02:30:00,
2013-01-13 20:35:00,3.6,-0.6,30.15,WSW,243,0.0,6.0,82,0.00,,SKC,0.00,VWS V14.01,2013-01-14 02:35:00,
2013-01-13 20:41:00,3.6,-0.6,30.15,WSW,243,4.0,5.0,82,0.00,,SKC,0.00,VWS V14.01,2013-01-14 02:41:00,
2013-01-13 20:46:00,3.6,-0.6,30.16,WSW,243,0.0,5.0,82,0.00,,SKC,0.00,VWS V14.01,2013-01-14 02:46:00,
2013-01-13 20:51:00,3.6,-0.6,30.15,WSW,243,4.0,6.0,82,0.00,,SKC,0.00,VWS V14.01,2013-01-14 02:51:00,
2013-01-13 20:56:00,3.7,-0.6,30.15,WSW,243,3.0,6.0,82,0.00,,SKC,0.00,VWS V14.01,2013-01-14 02:56:00,
2013-01-13 21:00:00,3.8,-0.2,30.15,WSW,242,2.0,6.0,83,0.00,,SKC,0.00,VWS V14.01,2013-01-14 03:00:00,
2013-01-13 21:01:00,3.7,-0.6,30.15,WSW,242,1.0,6.0,82,0.00,,SKC,0.00,VWS V14.01,2013-01-14 03:01:00,
2013-01-13 21:06:00,3.7,-0.3,30.15,WSW,242,2.0,4.0,83,0.00,,SKC,0.00,VWS V14.01,2013-01-14 03:06:00,
2013-01-13 21:11:00,3.7,-0.3,30.15,WSW,242,4.0,4.0,83,0.00,,SKC,0.00,VWS V14.01,2013-01-14 03:11:00,
2013-01-13 21:16:00,3.7,-0.3,30.15,WSW,242,1.0,4.0,83,0.00,,SKC,0.00,VWS V14.01,2013-01-14 03:16:00,
2013-01-13 21:21:00,3.8,-0.2,30.15,WSW,242,1.0,6.0,83,0.00,,SKC,0.00,VWS V14.01,2013-01-14 03:21:00,
2013-01-13 21:26:00,3.8,-0.2,30.15,WSW,242,3.0,6.0,83,0.00,,SKC,0.00,VWS V14.01,2013-01-14 03:26:00,
2013-01-13 21:30:00,3.7,-0.3,30.15,WSW,243,3.0,6.0,83,0.00,,SKC,0.00,VWS V14.01,2013-01-14 03:30:00,
2013-01-13 21:31:00,3.7,-0.3,30.15,WSW,243,0.0,6.0,83,0.00,,SKC,0.00,VWS V14.01,2013-01-14 03:31:00,
2013-01-13 21:36:00,3.6,-0.4,30.15,WSW,242,0.0,5.0,83,0.00,,SKC,0.00,VWS V14.01,2013-01-14 03:36:00,
2013-01-13 21:41:00,3.6,-0.4,30.15,WSW,242,1.0,5.0,83,0.00,,SKC,0.00,VWS V14.01,2013-01-14 03:41:00,
2013-01-13 21:46:00,3.5,-0.5,30.15,WSW,242,2.0,5.0,83,0.00,,SKC,0.00,VWS V14.01,2013-01-14 03:46:00,
2013-01-13 21:51:00,3.5,-0.5,30.15,WSW,242,0.0,5.0,83,0.00,,SKC,0.00,VWS V14.01,2013-01-14 03:51:00,
2013-01-13 21:56:00,3.3,-0.7,30.16,WSW,242,2.0,5.0,83,0.00,,SKC,0.00,VWS V14.01,2013-01-14 03:56:00,
2013-01-13 22:00:00,3.2,-0.8,30.16,WSW,242,4.0,5.0,83,0.00,,SKC,0.00,VWS V14.01,2013-01-14 04:00:00,
2013-01-13 22:01:00,3.3,-0.7,30.16,WSW,242,0.0,5.0,83,0.00,,SKC,0.00,VWS V14.01,2013-01-14 04:01:00,
2013-01-13 22:06:00,3.1,-0.9,30.16,WSW,242,0.0,4.0,83,0.00,,SKC,0.00,VWS V14.01,2013-01-14 04:06:00,
2013-01-13 22:11:00,3.2,-0.5,30.16,WSW,242,0.0,4.0,84,0.00,,SKC,0.00,VWS V14.01,2013-01-14 04:11:00,
2013-01-13 22:16:00,3.1,-0.6,30.16,WSW,242,0.0,5.0,84,0.00,,SKC,0.00,VWS V14.01,2013-01-14 04:16:00,
2013-01-13 22:21:00,3.0,-0.7,30.16,WSW,242,0.0,5.0,84,0.00,,SKC,0.00,VWS V14.01,2013-01-14 04:21:00,
2013-01-13 22:26:00,2.9,-0.8,30.16,WSW,240,0.0,7.0,84,0.00,,SKC,0.00,VWS V14.01,2013-01-14 04:26:00,
2013-01-13 22:30:00,2.9,-0.8,30.17,WSW,240,1.0,7.0,84,0.00,,SKC,0.00,VWS V14.01,2013-01-14 04:30:00,
2013-01-13 22:32:00,3.0,-0.7,30.17,WSW,240,0.0,7.0,84,0.00,,SKC,0.00,VWS V14.01,2013-01-14 04:32:00,
2013-01-13 22:37:00,2.8,-0.9,30.17,WSW,240,0.0,2.0,84,0.00,,SKC,0.00,VWS V14.01,2013-01-14 04:37:00,
2013-01-13 22:42:00,2.8,-0.9,30.16,WSW,240,4.0,5.0,84,0.00,,SKC,0.00,VWS V14.01,2013-01-14 04:42:00,
2013-01-13 22:47:00,2.8,-0.9,30.17,WSW,240,0.0,6.0,84,0.00,,SKC,0.00,VWS V14.01,2013-01-14 04:47:00,
2013-01-13 22:52:00,2.8,-0.9,30.17,WSW,240,4.0,6.0,84,0.00,,SKC,0.00,VWS V14.01,2013-01-14 04:52:00,
2013-01-13 22:57:00,2.6,-1.1,30.17,WSW,240,0.0,6.0,84,0.00,,SKC,0.00,VWS V14.01,2013-01-14 04:57:00,
2013-01-13 23:00:00,2.5,-1.2,30.17,WSW,240,2.0,6.0,84,0.00,,SKC,0.00,VWS V14.01,2013-01-14 05:00:00,
2013-01-13 23:04:00,2.5,-1.2,30.17,WSW,240,0.0,6.0,84,0.00,,SKC,0.00,VWS V14.01,2013-01-14 05:04:00,
2013-01-13 23:09:00,2.4,-1.3,30.17,WSW,240,3.0,3.0,84,0.00,,SKC,0.00,VWS V14.01,2013-01-14 05:09:00,
2013-01-13 23:10:00,2.4,-1.3,30.17,WSW,240,0.0,5.0,84,0.00,,SKC,0.00,VWS V14.01,2013-01-14 05:10:00,
2013-01-13 23:11:00,2.5,-1.2,30.17,WSW,240,0.0,5.0,84,0.00,,SKC,0.00,VWS V14.01,2013-01-14 05:11:00,
2013-01-13 23:16:00,2.5,-1.0,30.17,WSW,240,1.0,5.0,85,0.00,,SKC,0.00,VWS V14.01,2013-01-14 05:16:00,
2013-01-13 23:17:00,2.5,-1.0,30.17,WSW,240,0.0,5.0,85,0.00,,SKC,0.00,VWS V14.01,2013-01-14 05:17:00,
2013-01-13 23:22:00,2.4,-1.1,30.18,WSW,240,0.0,5.0,85,0.00,,SKC,0.00,VWS V14.01,2013-01-14 05:22:00,
2013-01-13 23:27:00,2.4,-1.1,30.18,WSW,240,0.0,5.0,85,0.00,,SKC,0.00,VWS V14.01,2013-01-14 05:27:00,
2013-01-13 23:30:00,2.3,-1.2,30.18,WSW,240,2.0,5.0,85,0.00,,SKC,0.00,VWS V14.01,2013-01-14 05:30:00,
2013-01-13 23:32:00,2.4,-1.1,30.18,WSW,240,0.0,5.0,85,0.00,,SKC,0.00,VWS V14.01,2013-01-14 05:32:00,
2013-01-13 23:37:00,2.3,-1.2,30.18,WSW,240,6.0,6.0,85,0.00,,SKC,0.00,VWS V14.01,2013-01-14 05:37:00,
2013-01-13 23:42:00,2.3,-1.2,30.18,WSW,240,0.0,6.0,85,0.00,,SKC,0.00,VWS V14.01,2013-01-14 05:42:00,
2013-01-13 23:47:00,2.3,-1.2,30.18,WSW,240,3.0,6.0,85,0.00,,SKC,0.00,VWS V14.01,2013-01-14 05:47:00,
2013-01-13 23:52:00,2.3,-1.2,30.18,WSW,240,0.0,6.0,85,0.00,,SKC,0.00,VWS V14.01,2013-01-14 05:52:00,
2013-01-13 23:57:00,2.4,-1.1,30.17,WSW,239,0.0,6.0,85,0.00,,SKC,0.00,VWS V14.01,2013-01-14 05:57:00,